Location: Kalispell
(48.1967°N, 114.3128°W)
Time: 23:19:04
(UTC-06:00)

Amateur Radio Satellites - All Passes

Search period start: 21 August 2017 22:49
Search period end: 22 August 2017 22:49
Location: Kalispell, 48.1967°N, 114.3128°W

Satellite Date Start Highest point End Downlink Frequencies (MHz)
Time Altitude Azimuth
LO-87 21 Aug 22:49:40 22:52:06 18° 64° (ENE) 22:54:33 145.935 - 145.965
EO-88 21 Aug 22:55:21 22:58:56 57° 260° (W) 23:02:33 145.990 - 145.960
ESTCUBE 1 21 Aug 23:09:00 23:12:39 25° 63° (ENE) 23:16:19 437.505/2401.250
PRISM 21 Aug 23:09:34 23:12:58 24° 94° (E) 23:16:19 437.425
STRAND 1 21 Aug 23:10:44 23:13:22 14° 306° (NW) 23:15:59 437.568
FO-29 21 Aug 23:17:22 23:23:06 84° 105° (ESE) 23:28:21 435.910
UNISAT 6 21 Aug 23:23:15 23:27:27 50° 99° (E) 23:31:43 437.425
SO-50 21 Aug 23:38:48 23:42:49 32° 118° (ESE) 23:46:51 436.795
Max Valier Satellite 21 Aug 23:38:59 23:41:15 16° 269° (W) 23:43:32 145.860
TIGRISAT 21 Aug 23:58:00 00:02:19 80° 285° (WNW) 00:06:41 435.000
PCSat 22 Aug 00:10:05 00:15:31 83° 306° (NW) 00:21:00 145.827
LO-87 22 Aug 00:21:53 00:25:16 39° 262° (W) 00:28:40 145.935 - 145.965
DUCHIFAT 1 22 Aug 00:32:01 00:33:52 13° 89° (E) 00:35:42 145.980
AIST 2D 22 Aug 00:38:25 00:41:49 40° 98° (E) 00:45:11 435.315
PRISM 22 Aug 00:44:32 00:48:20 35° 292° (WNW) 00:52:05 437.425
ESTCUBE 1 22 Aug 00:44:56 00:49:14 43° 261° (W) 00:53:35 437.505/2401.250
SPROUT 22 Aug 00:45:44 00:49:53 55° 72° (ENE) 00:54:04 437.525
DX 1 22 Aug 00:46:11 00:49:04 17° 60° (ENE) 00:51:58 434.975-435.025
VELOX 1 22 Aug 00:46:30 00:50:48 48° 70° (ENE) 00:55:06 145.980
50 SAT 22 Aug 00:59:15 01:01:55 22° 66° (ENE) 01:04:36 437.505
UNISAT 6 22 Aug 01:00:44 01:03:52 20° 297° (WNW) 01:07:02 437.425
FO-29 22 Aug 01:03:43 01:07:23 18° 307° (NW) 01:10:51 435.910
NANOSAT C BR1 22 Aug 01:16:04 01:20:02 39° 98° (E) 01:23:58 145.865
YUBILEINY 22 Aug 01:18:43 01:22:22 13° 45° (NE) 01:26:02 435.215
SO-50 22 Aug 01:18:55 01:23:12 41° 317° (NW) 01:27:30 436.795
POLYITAN 1 22 Aug 01:21:47 01:25:54 50° 100° (E) 01:29:59 437.675
M-CUBED/EXP-1 PRIME 22 Aug 01:32:10 01:36:37 76° 109° (ESE) 01:40:43 437.505
QB50P2 22 Aug 01:36:57 01:41:11 79° 103° (ESE) 01:45:24 145.880/145.840
TIGRISAT 22 Aug 01:37:12 01:38:17 11° 304° (WNW) 01:39:24 435.000
EO-79 22 Aug 01:37:13 01:41:26 73° 102° (ESE) 01:45:38 145.935-145.965
NO-84 22 Aug 01:52:58 01:55:16 21° 136° (SE) 01:57:32 435.350 FM
PCSat 22 Aug 01:55:35 01:59:45 22° 327° (NNW) 02:03:55 145.827
UKube-1 22 Aug 01:56:26 02:00:38 51° 71° (ENE) 02:04:52 .
BUGSAT 1 22 Aug 02:01:30 02:05:04 30° 96° (E) 02:08:37 437.445
DUCHIFAT 1 22 Aug 02:05:51 02:10:02 71° 285° (WNW) 02:14:11 145.980
AIST 2D 22 Aug 02:12:23 02:14:43 17° 296° (WNW) 02:17:04 435.315
DX 1 22 Aug 02:20:27 02:24:48 63° 258° (WSW) 02:29:10 434.975-435.025
SPROUT 22 Aug 02:23:25 02:26:08 16° 270° (W) 02:28:52 437.525
VELOX 1 22 Aug 02:24:09 02:27:29 21° 268° (W) 02:30:51 145.980
MOZHAYETS 4 22 Aug 02:28:37 02:30:54 14° 57° (ENE) 02:33:10
Gurwin Techsat 1B 22 Aug 02:30:23 02:34:22 21° 91° (E) 02:38:19 435.225
50 SAT 22 Aug 02:31:29 02:34:27 27° 264° (W) 02:37:27 437.505
Oscar 19 22 Aug 02:46:13 02:51:09 41° 98° (E) 02:56:02 437.125/150
NANOSAT C BR1 22 Aug 02:52:12 02:55:32 23° 296° (WNW) 02:58:53 145.865
BEESAT 22 Aug 02:53:37 02:57:37 28° 64° (ENE) 03:01:39 436.000
POLYITAN 1 22 Aug 02:58:20 03:01:21 19° 298° (WNW) 03:04:21 437.675
SO-50 22 Aug 03:02:32 03:04:50 14° 340° (NNW) 03:07:10 436.795
M-CUBED/EXP-1 PRIME 22 Aug 03:07:40 03:10:25 16° 308° (NW) 03:13:03 437.505
YUBILEINY 22 Aug 03:13:22 03:21:50 51° 72° (ENE) 03:30:13 435.215
QB50P2 22 Aug 03:14:22 03:16:24 13° 302° (WNW) 03:18:26 145.880/145.840
EO-79 22 Aug 03:14:25 03:16:40 14° 301° (WNW) 03:18:55 145.935-145.965
ITUPSAT 1 22 Aug 03:28:04 03:32:41 54° 70° (ENE) 03:37:21 437.325
NO-84 22 Aug 03:29:39 03:32:27 49° 334° (NNW) 03:35:14 435.350 FM
UKube-1 22 Aug 03:33:56 03:36:57 18° 268° (W) 03:40:00 .
BUGSAT 1 22 Aug 03:36:57 03:40:22 27° 294° (WNW) 03:43:47 437.445
PCSat 22 Aug 03:44:13 03:45:20 11° 353° (N) 03:46:28 145.827
AO-7 22 Aug 03:44:16 03:49:53 19° 88° (E) 03:55:27 .
MOZHAYETS 4 22 Aug 04:02:49 04:07:23 88° 262° (W) 04:11:59
KKS-1 22 Aug 04:07:11 04:09:25 14° 57° (ENE) 04:11:39 437.445
ITAMSAT 1 22 Aug 04:09:23 04:12:58 19° 90° (E) 04:16:31 435.822/435.867
Gurwin Techsat 1B 22 Aug 04:09:29 04:14:44 62° 290° (WNW) 04:19:59 435.225
Oscar 19 22 Aug 04:25:46 04:30:22 32° 296° (WNW) 04:34:56 437.125/150
CUBESAT XI-V 22 Aug 04:26:26 04:30:43 38° 68° (ENE) 04:35:04 437.345
BEESAT 22 Aug 04:30:46 04:35:14 41° 262° (W) 04:39:45 436.000
STARS 22 Aug 04:42:07 04:44:11 13° 57° (ENE) 04:46:13 437.465
SO-50 22 Aug 04:46:49 04:47:19 10° 5° (N) 04:47:48 436.795
ITUPSAT 1 22 Aug 05:07:18 05:10:50 21° 268° (W) 05:14:24 437.325
NO-84 22 Aug 05:08:02 05:10:18 21° 355° (N) 05:12:37 435.350 FM
YUBILEINY 22 Aug 05:10:31 05:18:30 42° 274° (W) 05:26:27 435.215
AO-85 22 Aug 05:11:33 05:12:30 11° 110° (ESE) 05:13:28 145.980
PCSat 22 Aug 05:28:42 05:31:20 13° 19° (NNE) 05:33:55 145.827
AO-7 22 Aug 05:35:31 05:43:56 81° 109° (ESE) 05:52:15 .
KKS-1 22 Aug 05:40:52 05:45:20 86° 256° (WSW) 05:49:50 437.445
MOZHAYETS 4 22 Aug 05:44:05 05:45:14 11° 274° (W) 05:46:24
ITAMSAT 1 22 Aug 05:47:47 05:52:56 68° 289° (WNW) 05:58:03 435.822/435.867
Gurwin Techsat 1B 22 Aug 05:51:49 05:53:40 12° 309° (NW) 05:55:31 435.225
CUBESAT XI-V 22 Aug 06:04:09 06:08:10 28° 266° (W) 06:12:14 437.345
BEESAT 3 22 Aug 06:07:42 06:11:40 64° 123° (ESE) 06:15:41 437.485
STARS 22 Aug 06:15:27 06:19:52 88° 255° (WSW) 06:24:17 437.465
BEESAT 2 22 Aug 06:25:07 06:28:45 34° 119° (ESE) 06:32:26 435.950
DOVE 4 22 Aug 06:26:08 06:30:07 29° 93° (E) 06:33:53 437.250
SO-50 22 Aug 06:26:09 06:29:32 20° 30° (NNE) 06:32:56 436.795
CUTE-I 22 Aug 06:29:52 06:31:25 11° 85° (E) 06:32:57 437.470
XW-2C 22 Aug 06:41:46 06:43:39 13° 89° (E) 06:45:33 145.795 - 145.815
NO-84 22 Aug 06:45:43 06:48:18 28° 17° (NNE) 06:51:00 435.350 FM
AO-85 22 Aug 06:48:18 06:52:13 86° 308° (NW) 06:56:11 145.980
XW-2F 22 Aug 06:52:15 06:54:42 16° 91° (E) 06:57:09 145.980 - 146.000
STRAND 1 22 Aug 07:11:01 07:15:30 32° 64° (ENE) 07:19:59 437.568
PCSat 22 Aug 07:11:20 07:16:22 36° 44° (NE) 07:21:22 145.827
KAITUO 1B 22 Aug 07:14:28 07:17:31 22° 94° (E) 07:20:33 145.475/437.950
KKS-1 22 Aug 07:21:51 07:22:35 10° 273° (W) 07:23:19 437.445
AO-7 22 Aug 07:29:02 07:35:56 30° 310° (NW) 07:42:48 .
ITAMSAT 1 22 Aug 07:29:24 07:31:28 12° 308° (NW) 07:33:32 435.822/435.867
HO-68 22 Aug 07:34:10 07:38:58 19° 87° (E) 07:43:44 435.675
LilacSat-2 22 Aug 07:41:45 07:45:38 63° 102° (ESE) 07:49:28 437.200
XW-2D 22 Aug 07:44:05 07:47:55 65° 101° (E) 07:51:45 145.860 - 145.880
NUDT-PHONESAT 22 Aug 07:44:31 07:48:10 46° 99° (E) 07:51:47 437.300
BEESAT 3 22 Aug 07:46:23 07:49:36 22° 324° (NW) 07:52:51 437.485
CUTE 1.7 + AOD 2 22 Aug 07:47:02 07:49:30 15° 89° (E) 07:51:57 437.475
FO-29 22 Aug 07:50:59 07:54:31 15° 50° (NE) 07:57:54 435.910
XW-2B 22 Aug 07:55:11 07:59:03 84° 103° (ESE) 08:02:54 145.730 - 145.750
STARS 22 Aug 07:56:08 07:56:52 10° 273° (W) 07:57:34 437.465
BEESAT 2 22 Aug 08:02:48 08:06:29 34° 318° (NW) 08:10:14 435.950
DOVE 4 22 Aug 08:03:43 08:07:51 33° 294° (WNW) 08:11:46 437.250
SO-50 22 Aug 08:06:06 08:10:40 83° 52° (NE) 08:15:16 436.795
CUTE-I 22 Aug 08:07:01 08:12:22 76° 104° (ESE) 08:17:41 437.470
CUBEBUG 2 22 Aug 08:13:29 08:15:54 15° 90° (E) 08:18:18 437.445
XW-2C 22 Aug 08:14:25 08:18:13 58° 287° (WNW) 08:22:00 145.795 - 145.815
NO-84 22 Aug 08:22:54 08:25:51 61° 216° (SW) 08:28:59 435.350 FM
XW-2A 22 Aug 08:23:43 08:25:43 15° 91° (E) 08:27:44 145.665 - 145.685
XW-2F 22 Aug 08:25:24 08:29:05 46° 288° (WNW) 08:32:46 145.980 - 146.000
AO-85 22 Aug 08:30:38 08:33:13 17° 330° (NNW) 08:35:51 145.980
SEEDS 22 Aug 08:31:04 08:34:40 26° 94° (E) 08:38:15 437.485
KAITUO 1B 22 Aug 08:48:08 08:51:34 32° 291° (WNW) 08:54:58 145.475/437.950
STRAND 1 22 Aug 08:49:48 08:54:34 40° 262° (W) 08:59:23 437.568
PCSat 22 Aug 08:54:43 08:59:54 47° 244° (WSW) 09:05:04 145.827
AO-73 22 Aug 08:59:42 09:01:58 14° 89° (E) 09:04:14 145.935
AAUSAT CUBESAT 2 22 Aug 09:11:45 09:15:32 32° 96° (E) 09:19:17 437.432
LilacSat-2 22 Aug 09:17:24 09:19:26 14° 299° (WNW) 09:21:28 437.200
NUDT-PHONESAT 22 Aug 09:19:16 09:21:43 17° 297° (WNW) 09:24:09 437.300
XW-2D 22 Aug 09:19:42 09:21:38 13° 299° (WNW) 09:23:32 145.860 - 145.880
HO-68 22 Aug 09:20:28 09:27:41 87° 109° (ESE) 09:34:52 435.675
CUTE 1.7 + AOD 2 22 Aug 09:21:28 09:25:45 63° 287° (WNW) 09:29:59 437.475
TIGRISAT 22 Aug 09:25:13 09:28:00 17° 61° (ENE) 09:30:47 435.000
AO-7 22 Aug 09:25:21 09:26:00 10° 335° (NNW) 09:26:41 .
FO-29 22 Aug 09:31:12 09:38:28 59° 69° (ENE) 09:45:00 435.910
XW-2B 22 Aug 09:31:33 09:32:37 11° 301° (WNW) 09:33:41 145.730 - 145.750
UWE-3 22 Aug 09:38:00 09:42:14 63° 102° (ESE) 09:46:31 435.000/436.395/437.385
Oscar 11 22 Aug 09:41:55 09:45:39 27° 94° (E) 09:49:22 .
BEESAT 2 22 Aug 09:44:26 09:45:26 11° 340° (NNW) 09:46:26 435.950
SO-50 22 Aug 09:47:57 09:50:32 15° 249° (WSW) 09:53:08 436.795
CUTE-I 22 Aug 09:48:08 09:51:51 20° 303° (WNW) 09:55:33 437.470
CUBEBUG 2 22 Aug 09:48:45 09:52:54 61° 287° (WNW) 09:57:08 437.445
Tancredo 1 22 Aug 09:49:03 09:51:32 25° 144° (SE) 09:54:01 437.200
XW-2A 22 Aug 09:55:27 09:58:38 39° 289° (WNW) 10:01:50 145.665 - 145.685
nSIGHT-1 22 Aug 09:56:47 09:57:55 11° 134° (SE) 09:59:03 .
PRISM 22 Aug 10:01:55 10:05:31 29° 66° (ENE) 10:09:08 437.425
DELFI C3 22 Aug 10:04:47 10:06:04 11° 88° (E) 10:07:21 145.870
SEEDS 22 Aug 10:06:32 10:10:25 34° 292° (WNW) 10:14:16 437.485
O/OREOS (USA 219) 22 Aug 10:08:43 10:12:57 44° 109° (ESE) 10:17:13 437.305
ZACube-1 22 Aug 10:14:06 10:18:25 84° 103° (ESE) 10:22:47 437.345
UNISAT 6 22 Aug 10:25:20 10:29:37 67° 73° (ENE) 10:33:53 437.425
AO-73 22 Aug 10:34:22 10:38:38 68° 287° (WNW) 10:42:58 145.935
RS-15 22 Aug 10:42:47 10:52:41 31° 102° (ESE) 11:02:37 29.354- 29.394
M-CUBED/EXP-1 PRIME 22 Aug 10:47:04 10:50:46 24° 56° (ENE) 10:54:30 437.505
AAUSAT CUBESAT 2 22 Aug 10:47:20 10:50:54 28° 294° (WNW) 10:54:27 437.432
QB50P2 22 Aug 10:59:59 11:01:38 12° 57° (ENE) 11:03:17 145.880/145.840
TIGRISAT 22 Aug 11:00:02 11:04:18 59° 259° (W) 11:08:31 435.000
EO-79 22 Aug 11:00:31 11:01:47 11° 57° (ENE) 11:03:02 145.935-145.965
Max Valier Satellite 22 Aug 11:03:33 11:07:01 35° 97° (E) 11:10:27 145.860
HO-68 22 Aug 11:09:10 11:14:37 24° 308° (NW) 11:20:04 435.675
UWE-3 22 Aug 11:15:38 11:18:15 16° 299° (WNW) 11:20:54 435.000/436.395/437.385
AIST 2D 22 Aug 11:16:15 11:19:11 26° 68° (ENE) 11:22:08 435.315
FO-29 22 Aug 11:17:14 11:23:46 32° 266° (W) 11:29:46 435.910
Oscar 11 22 Aug 11:17:53 11:21:50 35° 292° (WNW) 11:25:47 .
Tancredo 1 22 Aug 11:23:38 11:26:33 65° 343° (NNW) 11:29:27 437.200
ISS 22 Aug 11:24:21 11:27:33 51° 150° (SSE) 11:30:46 437.550
DUCHIFAT 1 22 Aug 11:27:01 11:29:35 16° 60° (ENE) 11:32:09 145.980
nSIGHT-1 22 Aug 11:30:31 11:33:44 60° 152° (SSE) 11:36:58 .
PRISM 22 Aug 11:37:02 11:40:44 31° 264° (W) 11:44:28 437.425
DELFI C3 22 Aug 11:37:21 11:41:20 73° 286° (WNW) 11:45:17 145.870
LO-87 22 Aug 11:46:28 11:47:58 12° 90° (E) 11:49:28 145.935 - 145.965
O/OREOS (USA 219) 22 Aug 11:48:47 11:52:32 26° 309° (NW) 11:56:20 437.305
ZACube-1 22 Aug 11:52:09 11:54:06 13° 301° (WNW) 11:56:04 437.345
EO-88 22 Aug 11:53:50 11:57:31 74° 285° (WNW) 12:01:11 145.990 - 145.960
AO-85 22 Aug 11:56:27 11:57:44 11° 21° (NNE) 11:59:01 145.980
UNISAT 6 22 Aug 12:04:35 12:06:47 14° 271° (W) 12:09:00 437.425
NANOSAT C BR1 22 Aug 12:11:13 12:15:13 46° 70° (ENE) 12:19:14 145.865
POLYITAN 1 22 Aug 12:17:24 12:21:32 59° 72° (ENE) 12:25:40 437.675
M-CUBED/EXP-1 PRIME 22 Aug 12:20:23 12:24:50 52° 255° (WSW) 12:29:26 437.505
Oscar 19 22 Aug 12:30:17 12:33:07 15° 54° (NE) 12:35:59 437.125/150
QB50P2 22 Aug 12:32:34 12:36:47 88° 267° (W) 12:41:01 145.880/145.840
EO-79 22 Aug 12:32:39 12:36:51 85° 75° (ENE) 12:41:04 145.935-145.965
ESTCUBE 1 22 Aug 12:33:35 12:37:38 30° 95° (E) 12:41:38 437.505/2401.250
Max Valier Satellite 22 Aug 12:37:53 12:40:39 20° 295° (WNW) 12:43:24 145.860
BEESAT 3 22 Aug 12:44:09 12:47:17 21° 35° (NE) 12:50:23 437.485
AIST 2D 22 Aug 12:49:29 12:52:21 23° 266° (W) 12:55:14 435.315
RS-15 22 Aug 12:51:23 13:03:43 90° 132° (SE) 13:16:07 29.354- 29.394
BUGSAT 1 22 Aug 12:54:21 12:58:03 34° 68° (ENE) 13:01:43 437.445
Tancredo 1 22 Aug 12:59:12 13:01:59 39° 1° (N) 13:04:46 437.200
AO-7 22 Aug 13:00:10 13:03:42 13° 32° (NNE) 13:07:13 .
DUCHIFAT 1 22 Aug 13:00:41 13:04:49 61° 259° (W) 13:08:57 145.980
ISS 22 Aug 13:00:51 13:04:04 51° 349° (N) 13:07:18 437.550
BEESAT 2 22 Aug 13:02:07 13:04:37 16° 29° (NNE) 13:07:06 435.950
nSIGHT-1 22 Aug 13:07:01 13:10:12 48° 351° (N) 13:13:23 .
LO-87 22 Aug 13:18:15 13:21:44 52° 287° (WNW) 13:25:09 145.935 - 145.965
AO-85 22 Aug 13:35:23 13:39:16 36° 43° (NE) 13:43:25 145.980
NANOSAT C BR1 22 Aug 13:48:09 13:51:10 19° 268° (W) 13:54:12 145.865
50 SAT 22 Aug 13:50:18 13:51:45 12° 90° (E) 13:53:13 437.505
Gurwin Techsat 1B 22 Aug 13:54:38 13:59:42 47° 68° (ENE) 14:04:47 435.225
POLYITAN 1 22 Aug 13:55:13 13:57:42 15° 270° (W) 14:00:10 437.675
SPROUT 22 Aug 14:03:16 14:07:30 65° 102° (ESE) 14:11:43 437.525
DX 1 22 Aug 14:05:51 14:08:44 17° 91° (E) 14:11:36 434.975-435.025
Oscar 19 22 Aug 14:06:30 14:11:40 84° 73° (ENE) 14:16:53 437.125/150
VELOX 1 22 Aug 14:08:55 14:13:18 58° 101° (E) 14:17:38 145.980
ESTCUBE 1 22 Aug 14:10:20 14:14:26 34° 294° (WNW) 14:18:31 437.505/2401.250
EO-79 22 Aug 14:12:20 14:13:12 11° 273° (W) 14:14:05 145.935-145.965
BEESAT 3 22 Aug 14:21:15 14:25:15 67° 235° (SW) 14:29:10 437.485
BUGSAT 1 22 Aug 14:30:08 14:33:28 24° 266° (W) 14:36:49 437.445
Tancredo 1 22 Aug 14:34:28 14:37:23 81° 23° (NNE) 14:40:17 437.200
ISS 22 Aug 14:37:41 14:40:54 48° 10° (N) 14:44:05 437.550
BEESAT 2 22 Aug 14:39:02 14:43:07 68° 51° (NE) 14:47:08 435.950
nSIGHT-1 22 Aug 14:43:43 14:46:55 51° 11° (N) 14:50:07 .
AO-7 22 Aug 14:46:38 14:54:15 41° 56° (NE) 15:01:52 .
RS-15 22 Aug 15:06:14 15:17:54 44° 335° (NNW) 15:29:25 29.354- 29.394
UKube-1 22 Aug 15:15:28 15:19:44 56° 101° (E) 15:23:58 .
AO-85 22 Aug 15:15:45 15:19:40 36° 241° (WSW) 15:23:52 145.980
50 SAT 22 Aug 15:21:26 15:24:42 47° 288° (WNW) 15:27:56 437.505
ITAMSAT 1 22 Aug 15:30:23 15:35:14 42° 66° (ENE) 15:40:06 435.822/435.867
Gurwin Techsat 1B 22 Aug 15:35:19 15:39:51 28° 266° (W) 15:44:25 435.225
SPROUT 22 Aug 15:40:22 15:42:55 16° 300° (WNW) 15:45:30 437.525
DX 1 22 Aug 15:41:00 15:45:16 56° 289° (WNW) 15:49:30 434.975-435.025
VELOX 1 22 Aug 15:46:17 15:49:21 19° 300° (WNW) 15:52:24 145.980
Oscar 19 22 Aug 15:48:49 15:51:40 15° 272° (W) 15:54:32 437.125/150
MOZHAYETS 4 22 Aug 15:55:02 15:58:05 17° 90° (E) 16:01:07
Tancredo 1 22 Aug 16:10:07 16:12:16 19° 219° (SW) 16:14:24 437.200
ISS 22 Aug 16:14:13 16:17:27 58° 209° (SSW) 16:20:40 437.550
BEESAT 2 22 Aug 16:17:57 16:20:22 15° 249° (WSW) 16:22:47 435.950
YUBILEINY 22 Aug 16:18:42 16:27:03 51° 89° (E) 16:35:22 435.215
nSIGHT-1 22 Aug 16:20:09 16:23:20 50° 210° (SSW) 16:26:29 .
BEESAT 22 Aug 16:26:48 16:31:14 37° 97° (E) 16:35:39 436.000
AO-7 22 Aug 16:38:32 16:46:45 59° 257° (WSW) 16:55:02 .
UKube-1 22 Aug 16:52:23 16:55:22 19° 300° (WNW) 16:58:22 .
ITUPSAT 1 22 Aug 17:02:16 17:07:04 77° 104° (ESE) 17:11:51 437.325
ITAMSAT 1 22 Aug 17:10:14 17:14:48 31° 265° (W) 17:19:24 435.822/435.867
RS-15 22 Aug 17:23:05 17:34:16 37° 9° (N) 17:45:05 29.354- 29.394
XW-2C 22 Aug 17:27:20 17:28:46 12° 60° (ENE) 17:30:12 145.795 - 145.815
KKS-1 22 Aug 17:29:35 17:31:53 14° 89° (E) 17:34:10 437.445
MOZHAYETS 4 22 Aug 17:31:04 17:35:39 62° 288° (WNW) 17:40:13
DOVE 4 22 Aug 17:33:46 17:38:48 48° 70° (ENE) 17:43:40 437.250
XW-2F 22 Aug 17:37:10 17:39:11 14° 61° (ENE) 17:41:12 145.980 - 146.000
ISS 22 Aug 17:52:21 17:53:21 11° 226° (SW) 17:54:21 437.550
CUTE-I 22 Aug 17:53:40 17:58:11 29° 62° (ENE) 18:02:42 437.470
CUBESAT XI-V 22 Aug 17:55:59 18:00:39 56° 100° (E) 18:05:15 437.345
KAITUO 1B 22 Aug 17:58:12 18:00:50 19° 64° (ENE) 18:03:29 145.475/437.950
STARS 22 Aug 18:02:50 18:04:45 13° 88° (E) 18:06:40 437.465
BEESAT 22 Aug 18:04:46 18:08:55 30° 296° (WNW) 18:13:04 436.000
HO-68 22 Aug 18:07:15 18:12:36 24° 51° (NE) 18:17:58 435.675
YUBILEINY 22 Aug 18:15:47 18:24:01 43° 291° (WNW) 18:32:17 435.215
LilacSat-2 22 Aug 18:26:46 18:30:26 50° 72° (ENE) 18:34:09 437.200
NUDT-PHONESAT 22 Aug 18:26:59 18:30:21 35° 70° (ENE) 18:33:44 437.300
XW-2D 22 Aug 18:28:26 18:32:05 51° 72° (ENE) 18:35:47 145.860 - 145.880
O/OREOS (USA 219) 22 Aug 18:35:58 18:39:40 24° 50° (NE) 18:43:22 437.305
AO-7 22 Aug 18:38:29 18:41:22 12° 278° (W) 18:44:16 .
XW-2B 22 Aug 18:39:28 18:43:11 66° 74° (ENE) 18:46:58 145.730 - 145.750
ITUPSAT 1 22 Aug 18:41:20 18:44:20 17° 302° (WNW) 18:47:18 437.325
CUTE 1.7 + AOD 2 22 Aug 18:43:07 18:45:56 18° 61° (ENE) 18:48:47 437.475
XW-2C 22 Aug 18:58:38 19:02:24 73° 258° (WSW) 19:06:12 145.795 - 145.815
KKS-1 22 Aug 19:04:31 19:08:57 72° 287° (WNW) 19:13:21 437.445
XW-2F 22 Aug 19:09:10 19:12:52 58° 259° (W) 19:16:37 145.980 - 146.000
DOVE 4 22 Aug 19:12:14 19:16:38 27° 267° (W) 19:20:58 437.250
CUBEBUG 2 22 Aug 19:14:59 19:18:01 20° 63° (ENE) 19:21:01 437.445
SEEDS 22 Aug 19:25:58 19:29:35 29° 66° (ENE) 19:33:15 437.485
KAITUO 1B 22 Aug 19:31:03 19:34:33 40° 262° (W) 19:38:08 145.475/437.950
CUTE-I 22 Aug 19:32:49 19:38:00 49° 260° (W) 19:43:12 437.470
CUBESAT XI-V 22 Aug 19:34:07 19:37:38 21° 299° (WNW) 19:41:09 437.345
STARS 22 Aug 19:37:15 19:41:38 76° 287° (WNW) 19:45:59 437.465
RS-15 22 Aug 19:37:31 19:49:41 63° 41° (NE) 20:01:11 29.354- 29.394
ZACube-1 22 Aug 19:39:54 19:41:39 12° 58° (ENE) 19:43:24 437.345
HO-68 22 Aug 19:52:19 19:59:30 89° 245° (WSW) 20:06:43 435.675
AO-73 22 Aug 19:58:46 20:01:25 17° 61° (ENE) 20:04:05 145.935
NUDT-PHONESAT 22 Aug 20:01:38 20:04:21 19° 267° (W) 20:07:05 437.300
LilacSat-2 22 Aug 20:02:52 20:05:01 15° 270° (W) 20:07:12 437.200
XW-2D 22 Aug 20:04:29 20:06:34 14° 270° (W) 20:08:41 145.860 - 145.880
AAUSAT CUBESAT 2 22 Aug 20:04:59 20:08:44 34° 68° (ENE) 20:12:32 437.432
O/OREOS (USA 219) 22 Aug 20:14:57 20:19:21 51° 250° (WSW) 20:23:46 437.305
XW-2B 22 Aug 20:16:36 20:17:49 11° 272° (W) 20:19:03 145.730 - 145.750
CUTE 1.7 + AOD 2 22 Aug 20:17:11 20:21:21 57° 260° (W) 20:25:35 437.475
YUBILEINY 22 Aug 20:21:52 20:23:51 11° 318° (NW) 20:25:51 435.215
XW-2A 22 Aug 20:29:30 20:32:49 69° 258° (WSW) 20:36:09 145.665 - 145.685
UWE-3 22 Aug 20:38:16 20:42:26 77° 76° (ENE) 20:46:35 435.000/436.395/437.385
Oscar 11 22 Aug 20:39:57 20:43:47 32° 67° (ENE) 20:47:39 .
KKS-1 22 Aug 20:43:48 20:44:42 11° 306° (NW) 20:45:34 437.445
CUBEBUG 2 22 Aug 20:50:15 20:54:21 47° 261° (W) 20:58:24 437.445
DELFI C3 22 Aug 20:53:44 20:55:22 12° 59° (ENE) 20:56:59 145.870
STRAND 1 22 Aug 20:56:02 21:01:02 53° 100° (E) 21:06:01 437.568
SEEDS 22 Aug 21:01:26 21:05:13 31° 265° (W) 21:09:02 437.485
ZACube-1 22 Aug 21:13:12 21:17:20 82° 258° (WSW) 21:21:31 437.345
STARS 22 Aug 21:16:06 21:17:12 11° 305° (NW) 21:18:18 437.465
AO-73 22 Aug 21:33:12 21:37:15 56° 259° (W) 21:41:21 145.935
AAUSAT CUBESAT 2 22 Aug 21:40:44 21:44:14 26° 266° (W) 21:47:47 437.432
HO-68 22 Aug 21:43:18 21:48:11 19° 272° (W) 21:53:06 435.675
Max Valier Satellite 22 Aug 21:45:51 21:48:59 27° 68° (ENE) 21:52:08 145.860
RS-15 22 Aug 21:50:36 22:02:00 52° 247° (WSW) 22:12:48 29.354- 29.394
PCSat 22 Aug 21:59:51 22:02:09 13° 102° (ESE) 22:04:28 145.827
UNISAT 6 22 Aug 22:15:38 22:16:31 11° 87° (E) 22:17:24 437.425
Oscar 11 22 Aug 22:16:11 22:19:56 29° 265° (W) 22:23:42 .
UWE-3 22 Aug 22:18:10 22:19:27 11° 273° (W) 22:20:44 435.000/436.395/437.385
FO-29 22 Aug 22:22:45 22:27:40 31° 93° (E) 22:32:16 435.910
DELFI C3 22 Aug 22:25:31 22:29:32 80° 258° (WSW) 22:33:34 145.870
LO-87 22 Aug 22:27:31 22:27:50 10° 60° (ENE) 22:28:09 145.935 - 145.965
EO-88 22 Aug 22:34:29 22:38:07 79° 75° (ENE) 22:41:46 145.990 - 145.960
STRAND 1 22 Aug 22:35:49 22:39:55 25° 299° (WNW) 22:44:01 437.568
